CT1AKV-10 Weather Reports


time (UTC)temp
C
wind
direction
speed
KPH
gust
KPH
rain 1hr
cm
rain 24hr
cm
rain mn
cm
humidity
%
barometer
mb
20260504033003 11 95 1.6 6.4 0.00 0.00 0.00 94 1015.2
20260504031503 11 66 1.6 6.4 0.00 0.00 0.00 94 1015.1
20260504030003 10 54 1.6 6.4 0.00 0.00 0.00 94 1015.1
20260504024503 10 0 0.0 3.2 0.00 0.00 0.00 94 1015.1
20260504023003 10 69 0.0 3.2 0.00 0.00 0.00 94 1015.2
20260504021503 10 81 0.0 3.2 0.00 0.00 0.00 94 1014.9
20260504020003 10 88 1.6 6.4 0.00 0.00 0.00 94 1015.2
20260504014503 10 105 1.6 3.2 0.00 0.00 0.00 94 1015.4
20260504013003 10 90 0.0 3.2 0.00 0.00 0.00 94 1015.1
20260504011503 10 91 1.6 6.4 0.00 0.00 0.00 94 1015.3
20260504010003 10 97 1.6 6.4 0.00 0.00 0.00 94 1015.4
20260504004503 11 92 1.6 6.4 0.00 0.00 0.00 93 1015.4
20260504003003 11 97 1.6 6.4 0.00 0.00 0.00 93 1015.4
20260504001503 11 99 3.2 6.4 0.00 0.00 0.00 93 1015.7
20260504000003 11 94 1.6 6.4 0.00 0.00 0.00 93 1015.6
20260503234503 11 95 1.6 6.4 0.00 0.00 0.00 92 1016.0
20260503233003 11 106 1.6 3.2 0.00 0.00 0.00 92 1015.8
20260503231503 11 111 1.6 3.2 0.00 0.00 0.00 92 1015.6
20260503230003 11 112 1.6 6.4 0.00 0.00 0.00 91 1015.6
20260503224503 12 95 1.6 6.4 0.00 0.00 0.00 91 1015.7
20260503223003 12 108 1.6 6.4 0.00 0.00 0.00 91 1016.1
20260503221503 12 96 1.6 6.4 0.00 0.00 0.00 91 1015.8
20260503220003 12 104 1.6 6.4 0.00 0.00 0.00 90 1015.7
20260503214503 12 92 1.6 3.2 0.00 0.00 0.00 90 1016.0
20260503213003 12 99 0.0 3.2 0.00 0.00 0.00 89 1015.8
20260503211503 12 110 1.6 3.2 0.00 0.00 0.00 88 1015.3
20260503210003 13 113 1.6 6.4 0.00 0.00 0.00 87 1015.3
20260503204503 13 127 3.2 6.4 0.00 0.00 0.00 86 1015.2
20260503203003 13 118 3.2 9.7 0.00 0.00 0.00 84 1014.9
20260503201503 13 128 4.8 9.7 0.00 0.00 0.00 83 1014.9
20260503200003 14 123 3.2 6.4 0.00 0.00 0.00 83 1014.6
20260503194503 15 115 4.8 9.7 0.00 0.00 0.00 81 1014.3
20260503193003 15 120 4.8 14.5 0.00 0.00 0.00 79 1014.3
20260503191503 15 119 6.4 11.3 0.00 0.00 0.00 78 1014.2
20260503190003 16 131 6.4 11.3 0.00 0.00 0.00 76 1013.8
20260503184503 16 125 6.4 17.7 0.00 0.00 0.00 73 1014.0
20260503183003 17 119 6.4 14.5 0.00 0.00 0.00 72 1013.5
20260503181504 17 149 8.0 20.9 0.00 0.00 0.00 72 1013.6
20260503180003 17 116 6.4 14.5 0.00 0.00 0.00 71 1013.7
20260503174503 17 105 6.4 14.5 0.00 0.00 0.00 67 1013.7
20260503173003 17 144 8.0 17.7 0.00 0.00 0.00 66 1013.5
20260503171503 17 141 8.0 22.5 0.00 0.00 0.00 67 1013.4
20260503081503 15 353 1.6 6.4 0.00 0.00 0.00 100 1015.0
20260503071503 12 10 1.6 6.4 0.00 0.00 0.00 100 1014.8
20260503054503 12 45 0.0 3.2 0.00 0.00 0.00 100 1014.4
20260503053003 12 43 0.0 3.2 0.00 0.00 0.00 100 1014.1
20260503051503 12 55 0.0 3.2 0.00 0.00 0.00 100 1014.3
20260503050003 12 53 0.0 6.4 0.00 0.00 0.00 100 1014.3
20260503044503 12 65 0.0 3.2 0.00 0.00 0.00 100 1014.2
20260503043003 12 357 1.6 6.4 0.00 0.00 0.00 100 1014.3
20260503041503 12 6 0.0 3.2 0.00 0.00 0.00 100 1014.2
20260503040003 12 350 1.6 6.4 0.00 0.00 0.00 100 1014.1
20260503034503 12 0 0.0 3.2 0.00 0.00 0.00 100 1014.4